Weather History for West Palm Beach, FL

Change the Weather History Date:

Friday, May 10, 2013

  Actual Average Record
Temperature  
Mean Temperature 81 °F 78 °F  
Max Temperature 86 °F 85 °F 94 °F (1998)
Min Temperature 75 °F 70 °F 50 °F (1928)
Degree Days  
Heating Degree Days 0 0  
Month to date heating degree days 0 0  
Since 1 July heating degree days 164 233  
Cooling Degree Days 16 12  
Month to date cooling degree days 91 116  
Year to date cooling degree days 918 811  
Growing Degree Days 30 (Base 50)    
Moisture  
Dew Point 71 °F    
Average Humidity 70    
Maximum Humidity 85    
Minimum Humidity 55    
Precipitation  
Precipitation 0.01 in 0.11 in 3.45 in (1895)
Month to date precipitation 3.81 0.90  
Year to date precipitation 13.09 15.10  
Snow  
Snow 0.00 in - - ()
Month to date snowfall 0.0  
Since 1 July snowfall 0.0  
Snow Depth 0.00 in    
Sea Level Pressure  
Sea Level Pressure 30.08 in    
Wind  
Wind Speed 9 mph (SE)    
Max Wind Speed 20 mph    
Max Gust Speed 24 mph    
Visibility 10 miles    
Events Rain    
T = Trace of Precipitation, MM = Missing Value Source: NWS Daily Summary

Daily Weather History Graph

Daily Weather History Graph

Search for Another Location

Airport:

Trip Planner

Search our weather history database for the weather conditions in past years. The results will help you decide how hot, cold, wet, or windy it might be!

Date:

Astronomy

May. 10, 2013 Rise Set
Actual Time 6:35 AM EDT 7:58 PM EDT
Civil Twilight 6:10 AM EDT 8:23 PM EDT
Nautical Twilight 5:41 AM EDT 8:52 PM EDT
Astronomical Twilight 5:10 AM EDT 9:23 PM EDT
Moon 6:59 AM EDT (5/10) 8:43 PM EDT (5/10)
Length of Visible Light 14h 12m
Length of Day
13h 22m
New Moon, 0% of the Moon is Illuminated
May 10
New Moon
May 18
First Quarter
May 25
Full
May 31
Last Quarter
Jun 8
New

Hourly Weather History & Observations

Time (EDT) Temp. Heat Index Dew Point Humidity Pressure Visibility Wind Dir Wind Speed Gust Speed Precip Events Conditions
12:53 AM 78.1 °F - 72.0 °F 81% 30.13 in 10.0 mi ESE 6.9 mph - N/A   Partly Cloudy
1:53 AM 77.0 °F - 72.0 °F 84% 30.10 in 10.0 mi East 6.9 mph - 0.01 in Rain Light Rain
2:53 AM 77.0 °F - 72.0 °F 84% 30.09 in 10.0 mi SSE 5.8 mph - 0.00 in   Mostly Cloudy
3:53 AM 75.9 °F - 70.0 °F 82% 30.07 in 10.0 mi SE 3.5 mph - N/A   Mostly Cloudy
4:53 AM 75.0 °F - 70.0 °F 84% 30.08 in 10.0 mi SSE 3.5 mph - N/A   Scattered Clouds
5:53 AM 75.9 °F - 70.0 °F 82% 30.06 in 10.0 mi SE 8.1 mph - N/A   Scattered Clouds
6:53 AM 75.0 °F - 70.0 °F 84% 30.07 in 10.0 mi Calm Calm - N/A   Scattered Clouds
7:53 AM 75.9 °F - 70.0 °F 82% 30.09 in 10.0 mi Calm Calm - N/A   Partly Cloudy
8:53 AM 80.1 °F 83.2 °F 70.0 °F 71% 30.09 in 10.0 mi SE 9.2 mph - N/A   Partly Cloudy
9:53 AM 81.0 °F 84.4 °F 70.0 °F 69% 30.10 in 10.0 mi SE 12.7 mph - N/A   Scattered Clouds
10:21 AM 82.4 °F 86.3 °F 69.8 °F 66% 30.11 in 10.0 mi SE 15.0 mph - N/A   Mostly Cloudy
10:53 AM 82.9 °F 87.5 °F 71.1 °F 67% 30.11 in 10.0 mi SE 12.7 mph - N/A   Mostly Cloudy
11:49 AM 84.2 °F 88.4 °F 69.8 °F 62% 30.10 in 10.0 mi SE 12.7 mph - N/A   Scattered Clouds
11:53 AM 84.9 °F 88.2 °F 68.0 °F 57% 30.10 in 10.0 mi SE 11.5 mph - N/A   Scattered Clouds
12:53 PM 84.9 °F 88.2 °F 68.0 °F 57% 30.07 in 10.0 mi SE 15.0 mph 20.7 mph N/A   Scattered Clouds
1:53 PM 84.0 °F 89.0 °F 71.1 °F 65% 30.09 in 10.0 mi ESE 12.7 mph 20.7 mph N/A   Scattered Clouds
2:53 PM 84.9 °F 87.6 °F 66.9 °F 55% 30.06 in 10.0 mi SE 17.3 mph 23.0 mph N/A   Scattered Clouds
3:53 PM 84.0 °F 87.8 °F 69.1 °F 61% 30.05 in 10.0 mi SE 19.6 mph - N/A   Scattered Clouds
4:53 PM 82.0 °F 85.5 °F 69.1 °F 65% 30.04 in 10.0 mi SE 17.3 mph - N/A   Scattered Clouds
5:53 PM 81.0 °F 84.4 °F 70.0 °F 69% 30.03 in 10.0 mi SSE 17.3 mph - N/A   Mostly Cloudy
6:53 PM 80.1 °F 83.8 °F 72.0 °F 76% 30.04 in 10.0 mi SSE 10.4 mph - N/A   Mostly Cloudy
7:53 PM 80.1 °F 83.8 °F 72.0 °F 76% 30.05 in 10.0 mi South 9.2 mph - N/A   Mostly Cloudy
8:53 PM 80.1 °F 83.6 °F 71.1 °F 74% 30.07 in 10.0 mi South 3.5 mph - N/A   Mostly Cloudy
9:53 PM 79.0 °F - 73.0 °F 82% 30.06 in 10.0 mi SE 6.9 mph - N/A   Mostly Cloudy
10:53 PM 79.0 °F - 73.0 °F 82% 30.06 in 10.0 mi South 6.9 mph - N/A   Mostly Cloudy
11:53 PM 78.1 °F - 73.0 °F 84% 30.06 in 10.0 mi SSE 5.8 mph - N/A   Partly Cloudy